This is the latest recevied weather packets stored in our database for station/object KC3WWU. If no packets are shown the sender has not sent any weather packets the latest 10 day(s).
| Time | Temp. | Humidity | Pressure | Rain* | Wind** | Luminosity | Snow |
|---|---|---|---|---|---|---|---|
| 1777892112 | 6.11° C | 69% | 1009.7 hPa | 0 mm | - | 30 W/m² | - |
| 1777891809 | 6.67° C | 72% | 1009.6 hPa | 0 mm | - | 22 W/m² | - |
| 1777891506 | 6.11° C | 69% | 1009.9 hPa | 0 mm | - | 19 W/m² | - |
| 1777891202 | 6.11° C | 70% | 1009.6 hPa | 0 mm | - | 11 W/m² | - |
| 1777890902 | 5.56° C | 78% | 1009.6 hPa | 0 mm | - | 10 W/m² | - |
| 1777890597 | 5.56° C | 79% | 1009.8 hPa | 0 mm | - | 7 W/m² | - |
| 1777890293 | 5° C | 78% | 1009.7 hPa | 0 mm | - | 6 W/m² | - |
| 1777889989 | 5.56° C | 75% | 1009.6 hPa | 0 mm | - | 4 W/m² | - |
| 1777889687 | 6.11° C | 76% | 1009.6 hPa | 0 mm | - | 3 W/m² | - |
| 1777889384 | 6.67° C | 71% | 1009.7 hPa | 0 mm | - | 2 W/m² | - |
| 1777889082 | 6.11° C | 72% | 1009.7 hPa | 0 mm | - | 1 W/m² | - |
| 1777888779 | 6.11° C | 73% | 1009.8 hPa | 0 mm | - | 0 W/m² | - |
| 1777888475 | 6.11° C | 69% | 1010 hPa | 0 mm | - | 0 W/m² | - |
| 1777888171 | 6.67° C | 68% | 1009.9 hPa | 0 mm | - | 0 W/m² | - |
| 1777887869 | 6.67° C | 67% | 1010 hPa | 0 mm | - | 0 W/m² | - |
| 1777887567 | 6.67° C | 68% | 1010 hPa | 0 mm | - | 0 W/m² | - |
| 1777887266 | 6.67° C | 67% | 1009.8 hPa | 0 mm | - | 0 W/m² | - |
| 1777886963 | 6.67° C | 67% | 1009.9 hPa | 0 mm | - | 0 W/m² | - |
| 1777886659 | 6.67° C | 67% | 1009.9 hPa | 0 mm | - | 0 W/m² | - |
| 1777886356 | 6.67° C | 67% | 1010 hPa | 0 mm | - | 0 W/m² | - |
| 1777886054 | 6.67° C | 67% | 1009.9 hPa | 0 mm | - | 0 W/m² | - |
| 1777885752 | 6.67° C | 66% | 1010.2 hPa | 0 mm | - | 0 W/m² | - |
| 1777885449 | 6.67° C | 67% | 1010.4 hPa | 0 mm | - | 0 W/m² | - |
| 1777885149 | 6.67° C | 66% | 1010.2 hPa | 0 mm | - | 0 W/m² | - |
| 1777884845 | 6.67° C | 66% | 1010.7 hPa | 0 mm | - | 0 W/m² | - |
* Rain latest hour (hover to see other rain measurements)
** Current wind speed in m/s (hover to see current wind gust speed)